Windom, MN

10:26 AM CST on November 18, 2017 (GMT -0600)
Windom Municipal

Weather History for KMWM - April, 2014

Change the Weather History Date:

Thursday, April 24, 2014

  Actual Average Record
Temperature  
Mean Temperature 47 °F -  
Max Temperature 55 °F 61 °F 86 °F (1962)
Min Temperature 39 °F 37 °F 20 °F (1967)
Degree Days  
Heating Degree Days 18    
Moisture  
Dew Point 42 °F    
Average Humidity 87    
Maximum Humidity 100    
Minimum Humidity 63    
Precipitation  
Precipitation 0.51 in - - ()
Sea Level Pressure  
Sea Level Pressure 29.72 in    
Wind  
Wind Speed 10 mph (NE)    
Max Wind Speed 21 mph    
Max Gust Speed 25 mph    
Visibility 8 miles    
Events Rain    
Averages and records for this station are not official NWS values.
T = Trace of Precipitation, MM = Missing Value Source: NWS Daily Summary

Daily Weather History Graph

Daily Weather History Graph

Search for Another Location

Airport or City:

Trip Planner

Search our weather history database for the weather conditions in past years. The results will help you decide how hot, cold, wet, or windy it might be!

Date:

Astronomy

Apr. 24, 2014 Rise Set
Actual Time 6:22 AM CDT 8:15 PM CDT
Civil Twilight 5:51 AM CDT 8:46 PM CDT
Nautical Twilight 5:14 AM CDT 9:24 PM CDT
Astronomical Twilight 4:33 AM CDT 10:05 PM CDT
Moon 3:44 AM CDT (4/24) 3:22 PM CDT (4/24)
Length of Visible Light 14h 54m
Length of Day
13h 52m
Waning Crescent, 24% of the Moon is Illuminated
Apr 24
Waning Crescent
Apr 29
New
May 6
First Quarter
May 14
Full
May 21
Last Quarter

Hourly Weather History & Observations

Time (CDT) Temp. Windchill Dew Point Humidity Pressure Visibility Wind Dir Wind Speed Gust Speed Precip Events Conditions
12:12 AM 42.8 °F 35.4 °F 39.2 °F 87% 29.77 in 10.0 mi ESE 15.0 mph 19.6 mph N/A   Light Drizzle
12:33 AM 42.8 °F 35.4 °F 39.2 °F 87% 29.77 in 10.0 mi ESE 15.0 mph 19.6 mph N/A Rain Light Rain
12:53 AM 42.8 °F 35.8 °F 39.2 °F 87% 29.78 in 10.0 mi ESE 13.8 mph 20.7 mph N/A   Overcast
1:12 AM 42.8 °F 36.2 °F 39.2 °F 87% 29.77 in 10.0 mi ESE 12.7 mph 16.1 mph 0.02 in Rain Rain
1:33 AM 42.8 °F 37.0 °F 39.2 °F 87% 29.76 in 10.0 mi East 10.4 mph - 0.02 in Rain Light Rain
1:52 AM 42.8 °F 37.5 °F 41.0 °F 93% 29.75 in 10.0 mi East 9.2 mph - 0.02 in   Overcast
2:33 AM 42.8 °F 37.5 °F 41.0 °F 93% 29.75 in 7.0 mi SE 9.2 mph - 0.03 in Rain Light Rain
2:52 AM 42.8 °F 36.6 °F 41.0 °F 93% 29.74 in 10.0 mi ESE 11.5 mph - 0.05 in Rain Light Rain
3:12 AM 42.8 °F 34.8 °F 41.0 °F 93% 29.72 in 7.0 mi ESE 17.3 mph - 0.02 in Rain Heavy Rain
3:52 AM 42.8 °F 39.3 °F 41.0 °F 93% 29.72 in 7.0 mi East 5.8 mph - 0.06 in Rain Light Rain
4:12 AM 42.8 °F 38.0 °F 41.0 °F 93% 29.73 in 7.0 mi ESE 8.1 mph - 0.02 in Rain Light Rain
4:33 AM 42.8 °F 38.0 °F 42.8 °F 100% 29.73 in 5.0 mi East 8.1 mph - 0.06 in Rain Rain
4:52 AM 42.8 °F 38.6 °F 42.8 °F 100% 29.73 in 5.0 mi ESE 6.9 mph - 0.08 in Rain Rain
5:33 AM 42.8 °F 38.0 °F 42.8 °F 100% 29.71 in 4.0 mi East 8.1 mph - 0.06 in Rain Rain
5:52 AM 42.8 °F 38.0 °F 42.8 °F 100% 29.70 in 4.0 mi East 8.1 mph - 0.10 in Rain Rain
6:12 AM 42.8 °F 36.6 °F 42.8 °F 100% 29.69 in 5.0 mi ESE 11.5 mph 16.1 mph 0.04 in Rain Rain
6:33 AM 42.8 °F 35.4 °F 42.8 °F 100% 29.68 in 7.0 mi ESE 15.0 mph - 0.07 in Rain Light Rain
6:52 AM 42.8 °F 36.6 °F 42.8 °F 100% 29.66 in 7.0 mi ESE 11.5 mph - 0.10 in Rain Rain
7:12 AM 42.8 °F 36.2 °F 41.0 °F 93% 29.66 in 7.0 mi ESE 12.7 mph 18.4 mph 0.03 in Rain Rain
7:33 AM 42.8 °F 35.8 °F 41.0 °F 93% 29.67 in 7.0 mi ESE 13.8 mph - 0.05 in Rain Rain
7:52 AM 42.8 °F 36.6 °F 41.0 °F 93% 29.69 in 7.0 mi ESE 11.5 mph - 0.07 in Rain Rain
8:12 AM 42.8 °F 37.5 °F 41.0 °F 93% 29.69 in 4.0 mi SE 9.2 mph - 0.01 in Rain Light Rain
8:33 AM 42.8 °F 37.0 °F 41.0 °F 93% 29.70 in 4.0 mi SE 10.4 mph - 0.03 in Rain Light Rain
8:52 AM 42.8 °F 38.6 °F 41.0 °F 93% 29.71 in 4.0 mi SE 6.9 mph - 0.03 in Rain Light Rain
9:12 AM 42.8 °F 39.3 °F 41.0 °F 93% 29.69 in 4.0 mi SE 5.8 mph - N/A Rain Light Rain
9:33 AM 42.8 °F 39.3 °F 41.0 °F 93% 29.69 in 4.0 mi ESE 5.8 mph - N/A   Light Drizzle
9:52 AM 42.8 °F - 42.8 °F 100% 29.69 in 4.0 mi Calm Calm - N/A   Overcast
10:12 AM 42.8 °F - 41.0 °F 93% 29.69 in 5.0 mi Calm Calm - N/A   Overcast
10:33 AM 42.8 °F - 41.0 °F 93% 29.69 in 5.0 mi Calm Calm - N/A   Drizzle
10:52 AM 44.6 °F - 42.8 °F 93% 29.69 in 7.0 mi Calm Calm - N/A   Light Drizzle
11:12 AM 44.6 °F - 42.8 °F 93% 29.69 in 4.0 mi Calm Calm - N/A   Light Drizzle
11:33 AM 44.6 °F - 42.8 °F 93% 29.69 in 4.0 mi Calm Calm - N/A   Light Drizzle
11:52 AM 44.6 °F 42.2 °F 42.8 °F 93% 29.69 in 5.0 mi NW 4.6 mph - N/A   Light Drizzle
12:12 PM 44.6 °F 39.7 °F 42.8 °F 93% 29.69 in 7.0 mi NNW 9.2 mph - N/A Rain Light Rain
12:33 PM 44.6 °F 40.2 °F 42.8 °F 93% 29.69 in 7.0 mi North 8.1 mph - N/A Rain Light Rain
12:52 PM 46.4 °F 43.5 °F 42.8 °F 87% 29.69 in 7.0 mi NW 5.8 mph - N/A Rain Light Rain
1:12 PM 44.6 °F 40.2 °F 42.8 °F 93% 29.70 in 10.0 mi NW 8.1 mph - N/A Rain Light Rain
1:52 PM 48.2 °F - 44.6 °F 87% 29.69 in 10.0 mi NW 13.8 mph - N/A   Mostly Cloudy
2:12 PM 50.0 °F - 44.6 °F 82% 29.69 in 10.0 mi NNW 12.7 mph 20.7 mph N/A   Overcast
2:33 PM 51.8 °F - 44.6 °F 76% 29.69 in 10.0 mi NNW 18.4 mph 23.0 mph N/A   Overcast
2:52 PM 51.8 °F - 44.6 °F 76% 29.70 in 10.0 mi NNW 20.7 mph - N/A   Mostly Cloudy
3:13 PM 51.8 °F - 44.6 °F 76% 29.70 in 10.0 mi NW 17.3 mph - N/A   Mostly Cloudy
3:33 PM 53.6 °F - 44.6 °F 72% 29.71 in 10.0 mi NW 16.1 mph 25.3 mph N/A   Mostly Cloudy
3:52 PM 53.6 °F - 44.6 °F 72% 29.71 in 10.0 mi NNW 15.0 mph 20.7 mph N/A   Mostly Cloudy
4:12 PM 53.6 °F - 44.6 °F 72% 29.72 in 10.0 mi NW 13.8 mph 20.7 mph N/A   Scattered Clouds
4:33 PM 53.6 °F - 44.6 °F 72% 29.72 in 10.0 mi NW 12.7 mph - N/A   Scattered Clouds
4:52 PM 53.6 °F - 42.8 °F 67% 29.72 in 10.0 mi NW 15.0 mph 20.7 mph N/A   Scattered Clouds
5:12 PM 55.4 °F - 42.8 °F 63% 29.71 in 10.0 mi NW 17.3 mph - N/A   Scattered Clouds
5:33 PM 55.4 °F - 42.8 °F 63% 29.71 in 10.0 mi NW 13.8 mph - N/A   Scattered Clouds
5:52 PM 53.6 °F - 42.8 °F 67% 29.71 in 10.0 mi NNW 10.4 mph - N/A   Scattered Clouds
6:12 PM 53.6 °F - 42.8 °F 67% 29.71 in 10.0 mi North 10.4 mph 17.3 mph N/A   Scattered Clouds
6:33 PM 53.6 °F - 42.8 °F 67% 29.72 in 10.0 mi NNW 10.4 mph - N/A   Scattered Clouds
6:52 PM 53.6 °F - 42.8 °F 67% 29.71 in 10.0 mi North 10.4 mph - N/A   Clear
7:12 PM 53.6 °F - 42.8 °F 67% 29.72 in 10.0 mi NNW 8.1 mph - N/A   Clear
7:33 PM 51.8 °F - 42.8 °F 71% 29.72 in 10.0 mi North 6.9 mph - N/A   Clear
7:52 PM 51.8 °F - 42.8 °F 71% 29.72 in 10.0 mi Calm Calm - N/A   Clear
8:12 PM 50.0 °F - 42.8 °F 76% 29.72 in 10.0 mi Calm Calm - N/A   Clear
8:32 PM 46.4 °F 42.9 °F 42.8 °F 87% 29.74 in 10.0 mi NNW 6.9 mph - N/A   Scattered Clouds
8:52 PM 48.2 °F - 42.8 °F 82% 29.75 in 10.0 mi Calm Calm - N/A   Mostly Cloudy
9:13 PM 48.2 °F - 44.6 °F 87% 29.75 in 10.0 mi Calm Calm - N/A   Scattered Clouds
9:32 PM 46.4 °F 44.3 °F 42.8 °F 87% 29.75 in 10.0 mi South 4.6 mph - N/A   Clear
9:52 PM 46.4 °F - 42.8 °F 87% 29.76 in 10.0 mi Calm Calm - N/A   Clear
10:13 PM 42.8 °F - 41.0 °F 93% 29.76 in 10.0 mi Calm Calm - N/A   Clear
10:32 PM 39.2 °F - 39.2 °F 100% 29.77 in 10.0 mi Calm Calm - N/A   Clear
10:52 PM 39.2 °F - 39.2 °F 100% 29.77 in 10.0 mi Calm Calm - N/A   Clear
11:13 PM 42.8 °F - 42.8 °F 100% 29.76 in 10.0 mi Calm Calm - N/A   Clear
11:32 PM 39.2 °F - 37.4 °F 93% 29.76 in 10.0 mi Calm Calm - N/A   Clear
11:52 PM 39.2 °F - 37.4 °F 93% 29.76 in 0.8 mi Calm Calm - N/A   Mostly Cloudy